Wind_Speed
24 20 16 16 17 14 12 11 11 11 11 10 11 13 15 16 16 15 15 15 15 14 14 13 13 13 13 14 14 15 15 15 14 14 13 11 11 11 10 10 10 10 9 9 9 9 10 11 11 11 11 11 11 11 10 11 11 12 13 13 11 11 11 9 8 8 7 6 6 5 5 4 4 5 6 7 8 8 9 10 10 11 12 12 12
23 22 18 17 19 17 13 12 11 11 12 11 11 13 15 16 17 17 16 15 15 14 14 13 13 13 13 14 14 15 16 16 16 15 14 13 12 12 12 11 10 10 11 11 11 11 11 12 13 13 12 12 12 12 10 11 12 12 13 12 10 10 10 9 8 8 8 8 7 6 6 6 6 6 7 8 9 9 10 10 11 12 12 12 12
23 23 19 17 19 17 13 12 12 11 12 12 12 14 15 17 19 18 17 16 15 14 14 14 13 13 13 14 14 15 15 16 16 16 15 14 13 13 12 12 11 11 12 12 12 11 12 12 13 13 13 13 13 12 11 12 13 13 13 12 10 9 10 9 9 9 9 9 8 7 7 8 8 8 9 9 10 10 10 11 11 12 12 13 13
24 24 20 17 17 17 16 16 15 13 13 13 13 15 16 18 20 20 19 17 15 14 15 14 14 14 14 13 14 15 15 15 16 15 15 14 13 12 11 11 11 11 11 11 11 12 12 12 12 12 13 14 14 12 12 12 13 14 14 12 11 11 11 12 11 11 10 9 9 9 9 10 10 10 10 11 12 12 12 11 12 13 13 14 14
22 22 20 18 15 16 18 18 18 16 16 17 18 17 17 18 20 21 21 19 17 16 15 15 16 15 14 13 13 14 15 16 16 15 14 14 13 12 12 11 11 11 11 11 12 13 13 13 13 12 13 14 14 12 11 11 13 15 14 12 11 11 12 13 13 12 10 10 11 12 12 13 13 12 12 12 13 14 14 13 14 14 15 15 16
17 16 17 18 17 16 16 17 19 19 19 20 21 20 18 18 20 22 24 22 19 17 17 17 16 15 14 14 14 15 16 17 17 16 16 15 15 14 13 12 12 12 12 13 13 13 13 14 14 14 15 16 14 12 12 12 13 14 14 11 11 11 12 13 14 14 12 12 13 14 15 15 15 15 15 15 15 15 16 16 16 16 17 18 18
15 14 15 17 18 19 19 19 19 19 18 20 22 23 21 20 21 23 25 25 22 20 19 17 16 16 16 17 17 16 16 17 18 18 17 17 17 17 15 15 15 14 14 15 15 14 14 15 16 16 17 18 16 13 13 13 13 14 14 13 13 13 14 15 16 16 15 15 16 17 18 18 18 18 18 17 17 18 17 17 17 18 19 20 20
17 15 15 17 20 22 22 23 23 22 19 20 24 26 26 24 22 24 26 26 23 22 21 18 17 18 19 20 19 17 17 18 18 18 19 19 19 19 18 18 17 15 16 17 16 15 16 16 17 17 18 18 17 15 14 13 13 14 15 16 16 16 16 17 18 18 19 19 20 20 21 21 21 21 21 20 20 21 20 20 19 20 20 21 21
21 19 20 21 22 21 21 23 26 25 23 22 23 25 27 25 24 25 27 26 25 24 21 19 20 20 21 22 21 19 19 20 20 20 20 21 21 21 20 19 18 17 18 19 18 18 18 18 18 18 18 19 18 17 15 14 14 16 17 18 18 19 19 19 20 21 21 22 23 23 24 24 25 25 25 24 23 23 23 23 23 22 22 23 23
22 21 21 22 22 22 21 22 24 25 25 25 24 24 27 26 25 27 28 28 27 25 21 21 22 22 22 23 22 21 22 23 23 22 23 23 22 22 21 21 20 19 19 20 19 19 19 20 20 20 20 20 20 19 18 16 17 18 19 19 20 21 21 22 22 23 24 24 25 26 26 27 28 28 28 27 27 26 26 27 27 26 26 26 27
22 22 22 22 22 23 23 23 23 24 26 26 24 24 27 27 26 28 29 30 29 25 23 24 24 22 22 23 23 23 24 25 25 25 25 24 23 23 23 23 23 22 21 20 20 20 21 21 22 22 21 20 21 21 20 19 19 20 21 22 22 22 23 24 25 25 26 27 27 28 29 29 30 30 31 31 31 30 31 32 32 32 32 31 32
22 23 22 22 23 25 26 26 25 24 25 27 26 26 28 29 29 29 31 32 29 26 26 27 26 23 22 23 24 24 24 25 26 27 27 26 25 25 25 25 25 23 22 21 21 22 22 21 22 22 21 21 21 22 22 22 22 23 23 24 24 24 25 26 27 28 29 29 29 30 31 32 33 33 33 33 33 33 34 35 35 36 37 36 37
23 23 23 22 24 26 26 26 26 26 26 27 28 29 30 31 31 32 33 32 29 28 29 29 27 24 23 24 25 25 25 25 26 27 28 27 26 26 26 26 25 24 23 23 23 23 22 22 23 24 23 23 23 23 24 24 24 24 25 25 26 26 27 28 29 30 30 31 31 32 33 34 35 35 36 36 36 36 36 36 37 38 39 39 40
24 24 23 22 24 28 28 26 27 28 27 27 28 31 33 34 35 35 33 31 29 30 31 31 29 26 24 25 26 26 26 27 27 28 28 28 27 27 27 27 26 25 25 26 25 24 23 23 25 25 23 23 24 24 25 25 25 26 26 27 28 29 30 31 31 31 31 32 33 34 35 36 36 36 37 38 38 38 38 39 39 40 40 41 42
24 25 24 23 25 28 28 26 26 27 28 27 27 30 32 34 37 35 31 29 29 30 32 32 31 29 27 26 27 27 27 28 28 29 29 29 29 28 28 28 27 27 27 28 26 25 24 24 25 25 24 24 25 25 26 26 27 27 28 29 30 31 32 33 33 34 34 35 35 36 37 37 38 38 39 40 41 41 42 42 43 43 43 44 45
25 25 24 24 26 27 28 27 26 28 29 28 28 29 31 35 36 34 32 30 30 31 33 34 34 31 30 29 28 28 29 29 29 30 30 31 31 31 29 29 28 28 29 29 27 26 25 25 26 26 26 27 27 28 28 29 29 30 31 32 33 33 33 34 35 36 36 37 37 38 38 39 39 40 41 42 43 44 45 45 45 46 47 48 49
26 26 25 25 27 27 27 28 28 29 29 30 31 31 32 35 36 35 35 34 32 32 34 36 35 34 33 32 31 30 31 31 32 32 32 33 34 34 32 30 30 31 31 30 29 28 27 27 27 28 29 30 31 31 31 32 32 33 34 35 35 36 36 36 37 37 38 39 39 40 40 41 42 43 44 45 46 47 48 48 48 49 51 52 52
26 26 25 25 25 25 26 28 30 32 31 30 32 33 34 37 37 34 35 35 33 33 34 36 36 35 35 34 32 32 33 34 34 35 36 36 36 37 35 33 33 33 33 32 32 31 30 29 29 30 31 32 32 33 34 35 35 36 36 37 37 37 38 38 39 39 40 41 41 42 42 43 44 45 46 47 48 49 50 50 51 54 55 55 56
23 23 22 21 22 25 28 30 33 36 35 33 35 36 36 38 39 36 35 37 35 33 34 36 36 36 36 35 33 33 34 35 35 35 35 35 36 37 36 35 35 35 33 33 32 32 31 31 31 32 33 34 35 35 36 36 37 37 37 37 37 37 38 38 39 39 40 41 42 43 43 44 45 46 47 49 50 51 52 53 55 57 58 59 60
23 23 23 22 22 24 27 29 30 33 35 35 37 39 39 40 41 39 37 38 35 32 32 34 33 34 36 36 34 32 32 34 34 33 32 33 34 36 36 35 35 35 34 33 33 33 33 33 34 35 35 36 36 36 36 36 37 37 37 37 37 37 37 38 39 39 40 41 43 44 45 46 47 48 49 50 51 53 54 56 59 61 62 62 62
24 25 25 25 24 23 23 26 28 30 32 35 38 42 44 44 43 40 38 38 35 31 30 30 31 33 34 34 33 32 32 32 32 32 32 33 34 34 34 35 36 35 35 34 34 34 34 35 36 36 36 36 36 36 36 37 37 37 38 38 38 38 39 39 40 41 42 43 44 46 47 48 49 50 51 52 54 56 58 60 62 63 64 64 64
25 26 25 25 24 22 20 24 30 32 32 36 39 42 44 43 41 39 39 38 35 33 32 31 32 33 33 34 35 35 34 34 33 33 34 34 34 34 34 35 36 36 36 35 35 35 36 36 37 37 36 37 37 37 37 38 38 39 39 39 40 40 41 42 43 44 46 47 48 50 51 52 52 54 55 55 57 59 60 62 63 65 66 67 68
26 27 26 24 22 21 20 21 28 32 30 32 37 40 41 39 38 39 40 40 38 36 34 33 34 33 33 36 38 38 38 37 36 35 35 34 34 35 35 36 37 37 38 37 37 37 37 37 37 37 37 38 38 38 39 40 41 41 41 42 43 44 44 46 47 48 49 50 52 53 53 54 54 55 56 57 58 60 61 63 66 68 70 71 73
26 26 26 25 22 21 20 19 22 28 30 29 31 34 36 36 36 37 39 39 37 35 34 35 35 35 35 38 40 40 40 39 36 35 35 35 35 35 35 36 36 37 38 39 39 39 39 39 39 40 40 40 40 40 41 41 42 43 44 45 46 47 48 50 51 51 52 53 54 55 55 56 56 57 58 60 61 63 65 67 70 72 74 75 77
26 26 26 25 23 22 22 20 18 21 27 30 30 32 34 35 35 36 36 36 36 36 36 36 35 36 38 39 40 40 39 36 34 35 36 36 35 35 35 36 36 37 38 39 40 41 41 41 41 41 42 41 41 42 42 43 44 45 46 47 48 50 51 52 53 54 55 55 56 57 57 58 60 61 63 65 67 69 70 72 74 76 77 78 79
25 24 24 25 24 24 24 23 21 18 20 24 27 30 32 32 32 34 36 38 38 36 35 34 36 37 38 38 37 37 36 34 35 36 36 36 35 35 35 36 37 38 39 40 41 41 42 42 42 42 43 43 45 46 47 47 48 49 49 50 51 52 53 54 54 55 55 56 57 58 59 61 63 65 67 69 72 74 75 76 77 78 79 80 80
23 22 23 23 24 25 25 25 25 23 20 20 21 22 24 26 27 28 31 34 34 34 34 34 35 34 34 33 33 34 35 35 35 35 35 35 35 35 35 37 38 39 40 41 42 43 43 44 45 45 46 47 48 49 49 50 51 51 52 52 53 53 54 55 55 56 57 58 60 61 63 65 67 70 72 74 76 78 78 79 79 79 79 80 80
19 20 23 23 22 23 24 25 25 25 23 21 19 19 20 20 20 21 23 26 28 29 31 31 31 29 28 28 30 31 32 33 33 33 33 34 34 35 36 38 39 40 41 42 43 44 45 46 47 47 48 48 49 49 50 51 51 52 52 52 53 54 56 57 58 59 60 62 63 65 67 70 72 74 76 77 78 79 78 78 78 78 77 77 77
21 21 25 26 24 23 23 24 25 26 25 24 22 21 21 22 22 22 22 23 24 25 26 26 27 27 27 27 28 29 31 32 33 34 34 35 37 38 39 40 41 41 42 43 43 44 45 46 46 47 48 48 49 50 50 51 51 51 52 53 55 57 58 59 61 62 63 65 67 69 71 73 75 76 77 77 78 78 77 77 76 74 74 73 71
27 27 28 29 29 28 28 27 27 27 27 26 24 24 25 26 27 28 28 28 28 28 28 27 28 29 31 31 32 33 34 36 37 37 38 39 40 41 43 44 45 45 46 46 46 46 46 46 46 47 47 48 48 48 49 50 51 53 54 56 57 58 60 62 63 65 67 69 70 72 73 74 75 76 76 75 75 74 74 73 72 71 70 69 68
31 32 32 32 32 31 32 32 32 32 32 31 31 30 30 29 29 30 31 32 32 33 33 33 32 34 35 36 36 37 38 39 40 41 42 42 43 45 46 47 47 47 47 47 46 45 45 46 46 46 46 47 48 49 50 52 53 55 56 58 59 60 62 64 66 67 69 70 71 72 73 73 74 74 74 74 74 73 72 70 69 68 66 65 65
34 35 36 36 36 36 35 35 36 36 37 37 36 36 36 35 34 34 33 34 34 34 34 34 34 35 36 36 37 37 38 39 40 41 42 42 43 44 45 45 45 45 44 44 44 44 44 45 45 45 46 48 49 50 52 53 54 56 57 59 61 62 64 65 67 68 69 69 70 71 71 72 73 73 73 72 71 69 67 65 63 62 62 62 62
37 38 38 38 37 37 38 39 39 39 39 39 39 38 38 38 38 38 38 38 38 38 38 38 38 38 38 38 39 39 39 40 40 41 41 42 43 43 43 43 42 42 41 42 42 43 44 45 46 47 48 49 50 52 53 54 56 57 59 60 61 63 64 65 66 67 67 68 68 69 69 70 69 68 67 65 63 61 60 59 58 59 60 60 61
36 38 39 40 39 38 38 39 41 41 41 41 40 39 39 39 39 39 39 39 40 40 40 40 41 41 42 42 42 42 42 42 41 41 40 40 41 41 40 40 40 41 41 42 43 44 45 46 47 48 49 50 52 53 54 55 57 58 59 60 61 62 63 63 64 64 65 66 66 65 65 63 61 60 58 57 57 56 56 56 55 56 56 57 57
35 36 37 39 39 38 37 37 38 39 40 40 39 38 37 38 38 39 39 39 39 38 38 38 38 38 39 39 39 39 39 38 37 37 37 37 38 38 39 40 41 42 43 44 45 46 47 47 48 49 50 51 52 54 54 55 56 57 57 58 59 60 60 61 61 62 62 61 60 59 57 56 55 55 54 54 54 53 52 52 51 50 51 52 51
37 38 38 38 38 37 36 35 35 36 36 36 36 36 36 35 35 36 36 36 36 35 35 35 35 35 35 35 35 36 36 37 37 37 38 39 39 40 41 41 42 44 45 45 46 47 48 48 48 49 50 51 52 53 53 54 55 55 56 56 57 57 57 58 57 57 56 55 54 53 53 53 53 53 52 51 50 49 48 47 46 46 47 47 46
40 40 40 40 40 39 38 38 37 37 36 36 36 36 36 35 35 35 35 36 36 35 36 36 36 35 35 36 37 38 38 39 39 39 40 41 42 42 43 43 44 45 45 45 46 47 47 48 48 49 50 50 51 51 52 52 53 53 53 53 53 53 53 53 52 51 51 51 51 51 51 51 50 49 48 47 46 45 44 43 42 42 44 44 42
42 41 41 41 41 41 40 39 39 39 38 38 38 38 37 37 37 37 38 38 37 37 38 39 39 38 37 38 39 40 40 40 41 41 42 42 42 42 43 43 43 44 44 45 45 46 47 47 48 48 48 48 49 49 49 49 50 50 50 50 50 50 50 49 49 49 49 49 49 49 48 46 45 44 43 43 43 42 40 39 39 40 41 40 38
42 42 41 41 41 40 40 39 38 38 37 36 36 36 36 36 36 36 37 38 37 36 37 38 39 39 38 38 38 39 39 40 40 40 40 40 41 41 41 42 42 43 43 44 44 45 45 46 46 46 46 46 46 46 46 46 47 47 48 48 48 48 48 48 48 48 48 47 46 45 43 42 41 40 40 41 40 38 37 36 37 39 38 35 34
42 42 41 41 40 40 39 38 38 37 36 35 35 35 35 35 34 34 35 36 36 35 35 36 36 37 37 37 37 37 38 38 38 38 39 39 39 40 40 41 41 42 42 43 43 43 44 44 44 44 44 44 44 44 44 44 45 45 46 46 46 46 46 46 46 46 45 43 42 40 39 38 38 38 38 38 37 35 34 34 36 36 34 31 30
42 42 42 42 41 41 40 39 39 38 38 37 37 37 37 36 36 35 35 35 35 35 35 35 35 35 35 35 36 37 38 38 38 38 38 39 39 39 39 40 40 41 41 41 41 41 41 41 41 41 41 41 42 42 43 43 44 44 44 45 45 44 44 44 43 42 41 39 37 36 36 36 36 36 36 35 33 32 31 32 33 32 29 26 27
40 41 41 42 42 42 42 41 40 40 39 39 39 39 39 38 38 37 37 37 36 36 36 36 36 35 36 36 36 37 37 38 38 38 38 38 38 38 39 39 39 39 39 39 39 39 39 39 39 39 39 40 40 41 42 43 43 43 43 43 42 41 41 40 39 38 36 34 33 33 34 35 35 34 33 32 30 28 28 29 30 29 25 22 23
34 37 39 40 41 41 42 42 42 41 41 40 40 40 40 40 40 40 39 39 38 38 38 38 37 37 37 37 37 37 37 37 37 37 38 38 37 37 37 37 37 37 37 37 37 36 36 36 36 37 38 38 40 41 41 42 42 42 41 40 39 38 38 37 36 34 33 32 32 32 33 33 32 31 31 30 28 26 26 27 27 26 23 20 19
27 31 34 36 37 38 39 40 41 42 42 41 41 41 40 41 41 41 40 40 39 39 39 39 38 38 38 38 38 37 37 37 37 36 36 36 36 35 35 35 35 35 34 34 34 34 34 34 35 36 37 38 39 40 40 40 39 39 38 37 36 35 35 33 32 31 30 30 31 31 31 31 30 29 29 28 27 24 23 25 26 25 23 19 17
23 25 28 29 31 32 35 36 38 39 40 40 40 40 40 40 40 40 40 40 39 39 39 39 38 38 38 37 37 36 35 35 35 34 34 34 33 33 33 33 33 32 32 31 31 32 32 33 34 35 36 37 38 38 38 37 36 35 35 34 34 33 31 30 29 28 28 29 29 30 30 29 28 27 27 27 26 23 21 23 24 25 23 20 17
22 23 24 25 25 25 27 29 32 34 35 36 37 38 38 38 38 38 37 37 37 37 37 37 36 36 36 35 35 34 33 33 32 32 32 32 31 31 31 30 30 30 29 29 29 30 31 32 33 34 35 35 36 36 35 34 33 32 32 31 31 30 28 27 27 27 27 28 28 28 29 29 28 26 25 26 24 22 20 21 23 23 23 21 18
20 22 23 23 23 22 21 22 25 27 30 31 32 33 33 34 35 35 34 34 34 34 34 34 33 33 32 32 32 31 31 31 30 30 30 29 29 28 28 27 27 27 27 27 27 28 29 30 31 32 33 33 33 32 32 31 30 30 29 29 28 27 26 26 26 26 26 27 27 27 28 29 27 25 24 24 23 21 20 20 21 21 22 22 20
18 19 20 21 22 22 21 20 21 24 26 27 27 28 28 29 30 31 31 31 31 31 31 31 30 30 29 29 29 28 28 28 28 27 27 26 26 25 25 25 25 25 25 25 26 27 29 30 31 31 31 31 30 29 29 28 28 27 27 26 25 25 24 24 25 25 25 26 26 27 28 28 26 23 22 22 22 20 20 20 19 19 20 21 21
17 18 19 19 20 21 21 20 20 22 24 25 24 25 25 26 27 28 28 28 28 28 28 28 28 28 27 27 26 26 26 26 25 25 24 24 23 23 22 22 22 23 23 24 25 27 28 29 30 30 29 28 28 27 27 26 26 26 25 24 24 23 23 24 24 24 25 25 25 26 27 26 24 21 21 21 21 20 20 19 17 16 16 18 20
15 16 16 17 18 20 21 20 20 20 22 23 23 23 23 24 25 25 25 26 26 26 26 26 26 26 25 25 25 24 24 23 23 22 22 21 21 21 21 21 21 21 22 23 25 26 28 28 28 28 27 26 26 25 25 25 25 24 24 23 23 22 23 23 23 23 24 24 24 24 25 24 22 20 20 20 19 20 19 18 16 15 14 15 16
15 15 15 16 17 18 19 19 19 19 19 20 21 22 22 23 23 24 24 24 24 24 24 24 24 24 23 23 23 22 22 21 20 20 20 19 19 19 19 19 19 20 21 23 24 26 26 26 26 25 24 24 24 23 23 23 23 23 22 22 21 21 21 21 21 22 22 22 22 22 22 22 21 20 19 19 18 18 19 18 16 14 13 13 14
Wind_Direction
225 221 219 215 218 231 244 252 264 269 264 255 248 251 254 255 253 249 244 243 244 248 250 251 251 252 253 252 250 249 249 249 244 238 238 240 240 240 238 232 230 232 230 224 218 217 219 223 228 229 230 230 228 228 225 218 216 214 217 221 215 214 225 225 217 221 226 233 240 246 255 268 282 292 301 307 310 314 315 314 314 311 309 308 307
232 229 222 211 214 224 233 244 258 269 271 266 258 257 260 261 260 253 244 241 243 248 252 254 252 251 252 251 250 249 246 245 241 235 236 239 239 239 240 236 230 230 233 233 232 232 229 227 230 231 229 230 230 228 223 220 221 222 224 227 222 221 229 229 222 223 226 229 234 240 253 268 278 282 291 299 301 301 302 302 302 301 300 300 300
232 235 230 218 216 220 230 246 255 263 269 268 266 266 266 267 264 256 246 241 244 250 254 255 254 252 251 250 250 247 241 239 239 238 237 239 238 237 238 238 235 232 234 237 238 237 233 230 231 228 223 224 227 224 218 218 223 229 234 238 236 231 233 235 229 225 226 230 235 242 251 262 269 274 282 288 290 289 289 289 291 291 291 292 292
228 235 234 225 222 225 233 242 246 249 251 253 260 265 266 268 267 260 252 247 247 251 253 253 252 251 250 249 246 243 239 239 241 241 239 237 233 230 231 234 237 238 239 240 240 240 239 238 237 230 222 224 229 227 222 222 228 237 244 243 236 228 231 237 235 229 228 233 240 247 252 258 263 268 274 278 280 281 283 284 284 284 285 285 286
232 234 233 235 240 241 243 245 244 245 244 244 251 254 254 259 264 263 257 253 251 251 250 250 249 250 250 247 244 240 238 240 240 238 236 232 229 227 228 231 237 241 242 240 239 240 243 243 239 233 229 232 235 233 231 233 237 243 246 242 230 227 233 242 246 242 238 240 247 252 255 259 263 267 271 274 276 277 278 280 280 281 281 282 282
251 243 233 234 241 247 254 258 256 254 253 253 251 248 245 247 255 260 259 255 253 251 249 248 247 249 249 246 242 238 237 237 236 233 231 231 233 235 239 243 244 244 244 243 241 241 243 243 239 236 236 239 240 238 237 237 238 243 247 244 237 236 242 250 256 257 255 252 254 257 259 261 265 269 272 275 277 277 277 278 279 280 280 279 278
263 254 239 237 246 255 259 261 263 263 260 257 252 247 245 244 247 254 256 255 253 252 251 249 246 245 246 246 245 241 240 239 236 233 232 236 242 246 252 256 254 250 247 246 244 241 241 240 239 240 242 245 245 240 239 239 239 242 246 247 246 246 249 254 259 262 263 262 261 262 263 264 266 269 272 276 277 277 277 278 277 276 276 277 277
270 273 268 262 264 266 262 258 263 267 264 259 253 248 244 242 243 248 252 254 253 253 252 250 246 242 241 245 246 246 245 244 240 237 236 240 247 251 256 259 258 255 251 250 247 244 242 240 239 241 245 250 251 246 244 246 248 249 251 253 256 256 256 257 260 262 264 265 265 266 267 268 268 269 270 272 274 276 278 279 277 275 274 275 278
280 284 281 273 268 270 271 267 266 267 264 260 255 247 240 237 239 244 248 251 253 253 253 251 249 244 239 241 245 247 248 247 244 241 240 241 246 251 254 256 256 254 252 252 250 247 246 245 243 243 245 251 255 254 252 253 255 256 256 259 264 266 264 262 263 264 265 267 268 268 269 270 270 271 272 273 274 276 278 280 279 278 276 276 277
285 286 284 280 275 275 278 278 272 265 260 259 258 248 238 234 237 242 245 248 251 253 253 250 251 248 240 239 242 243 245 246 246 244 243 244 246 249 252 254 254 252 252 253 253 250 250 249 248 248 248 251 256 258 259 259 258 259 260 260 262 266 268 268 268 268 268 269 270 271 271 271 271 273 274 275 275 277 278 278 278 277 275 274 274
284 284 283 282 282 280 278 277 275 268 260 258 258 251 239 234 238 242 243 246 249 251 251 250 252 250 243 239 240 242 244 245 247 248 247 248 248 251 252 253 254 253 253 255 255 252 251 252 252 253 253 254 257 260 261 261 261 262 264 264 264 265 269 271 273 273 273 273 274 275 275 275 275 275 276 277 278 280 281 281 281 281 281 280 280
277 279 280 279 281 281 278 275 273 270 262 254 252 253 246 239 238 241 243 245 247 249 250 251 252 250 245 241 242 245 246 247 248 249 250 251 251 253 254 255 255 255 254 254 253 252 252 253 254 254 254 254 255 257 259 261 263 264 265 267 267 267 269 272 273 276 277 278 278 278 278 278 278 278 279 280 281 283 284 284 285 285 285 286 287
274 275 278 278 277 276 276 274 270 266 262 254 250 255 254 244 236 237 241 244 246 248 249 251 252 251 248 244 243 245 247 248 248 249 250 251 252 254 255 256 256 256 255 253 251 250 249 249 251 252 252 253 255 256 259 262 264 265 267 268 270 270 271 272 274 276 278 279 280 280 279 280 280 280 281 282 282 283 283 283 284 285 287 288 290
274 275 275 274 273 272 270 271 268 263 261 256 250 254 257 246 233 233 239 244 246 247 249 250 250 250 248 244 242 243 245 246 248 249 250 251 252 253 255 257 257 257 256 254 253 252 250 249 251 253 253 255 257 259 261 263 265 267 268 270 271 271 272 273 274 276 277 278 278 279 279 279 279 280 280 279 279 279 280 281 282 284 286 287 289
275 276 274 270 270 270 267 267 266 261 260 257 251 252 253 241 228 229 238 245 247 248 248 249 248 247 247 245 243 242 243 245 247 249 251 252 252 252 254 256 257 256 255 256 255 254 252 251 252 253 254 254 256 258 261 262 263 264 265 267 268 269 271 273 275 276 276 276 277 278 278 279 279 279 279 279 278 278 278 279 280 282 283 285 287
275 276 275 271 270 270 268 265 262 259 258 256 252 250 244 232 229 236 245 250 250 248 247 247 248 247 246 245 244 243 243 244 246 250 253 255 254 253 253 254 255 254 254 256 256 253 251 251 252 253 255 255 255 256 257 258 260 262 263 265 266 268 270 272 273 275 276 276 277 278 278 279 279 279 279 279 279 279 278 279 280 281 283 284 286
276 275 274 272 273 272 267 261 259 262 264 259 253 249 239 229 233 244 250 250 250 248 245 246 247 247 246 245 244 244 245 246 249 253 256 258 258 256 253 252 252 251 251 252 253 251 250 250 251 253 254 255 256 257 258 260 261 263 264 266 268 269 270 272 273 274 275 276 277 278 278 279 279 280 280 280 280 280 280 281 282 282 283 284 285
277 278 275 270 265 260 254 249 250 255 260 256 250 246 237 227 230 242 247 245 246 245 243 244 246 247 247 247 245 246 249 251 253 255 257 258 259 257 253 250 249 249 249 250 251 252 251 251 253 254 256 257 258 260 261 262 264 266 267 269 271 272 273 274 275 276 277 277 278 278 279 279 280 281 281 281 281 281 281 281 282 282 283 284 285
276 278 277 272 262 252 245 241 238 238 239 238 237 237 232 226 230 243 248 244 244 244 241 242 246 248 250 250 248 247 251 253 255 256 257 257 256 252 249 248 249 250 252 252 254 255 256 256 257 258 258 259 260 262 263 264 266 267 269 270 272 273 274 275 276 277 277 278 279 280 281 281 282 281 281 281 281 281 281 281 281 282 284 285 285
271 271 273 276 277 272 262 253 244 238 235 234 231 227 223 224 234 245 246 241 242 245 242 242 246 249 250 251 249 249 252 253 252 251 251 250 249 247 247 246 247 250 252 252 253 255 257 258 259 260 260 261 262 263 265 266 267 268 268 269 270 271 272 273 274 276 277 278 280 281 282 283 283 283 282 281 280 280 281 282 283 284 286 286 286
268 270 273 276 282 287 280 265 256 249 245 242 235 226 221 227 237 244 243 240 244 248 246 245 246 247 246 246 248 252 256 254 249 245 243 243 244 247 247 246 245 248 251 253 254 255 256 258 259 261 262 263 264 264 265 266 267 268 269 270 271 272 274 276 278 279 281 282 282 283 284 284 285 285 285 284 283 283 284 285 286 287 286 286 285
267 267 272 276 278 284 282 263 250 247 246 246 240 231 228 233 239 241 241 242 247 252 251 247 246 245 243 244 250 256 257 252 247 243 242 243 244 247 248 247 246 247 250 252 254 256 257 259 261 262 264 264 265 265 266 267 268 269 271 273 275 277 279 280 281 282 283 283 284 284 285 285 286 286 286 286 285 286 286 287 286 286 285 284 284
269 266 268 272 272 276 278 261 242 239 244 247 242 236 234 237 240 242 245 248 251 252 249 244 245 248 249 251 256 259 255 248 245 244 244 244 245 245 246 247 247 248 250 253 256 258 260 261 262 264 265 266 267 268 270 272 273 275 276 278 280 281 281 282 283 283 284 284 285 285 286 286 287 287 286 286 286 286 285 285 284 284 284 284 283
271 268 266 268 268 268 273 269 248 237 239 244 243 241 240 242 245 248 250 252 250 246 241 239 242 246 249 252 256 255 249 244 243 245 245 244 244 244 245 246 247 249 252 255 257 259 260 261 262 263 264 266 268 269 271 274 276 277 279 280 281 282 283 283 284 285 285 286 287 287 288 288 288 287 287 287 287 286 285 285 284 284 283 283 283
270 268 265 264 263 260 261 264 259 244 237 238 240 241 242 244 245 245 245 246 246 245 242 239 236 237 241 245 246 244 241 241 243 244 244 244 243 244 245 248 250 253 255 257 259 260 262 265 266 267 267 267 268 269 271 273 275 277 278 279 280 281 282 283 284 285 285 286 287 288 288 288 288 289 289 289 288 288 287 286 285 284 284 283 283
266 263 261 259 259 258 255 255 257 253 242 235 234 236 237 238 238 239 241 243 244 240 233 226 223 226 232 235 235 236 238 240 241 242 244 245 246 247 249 252 255 257 258 260 261 263 264 266 267 268 269 270 271 272 274 275 276 277 279 280 281 282 283 284 284 285 286 287 287 288 288 289 289 289 289 289 288 288 287 286 286 285 285 285 285
264 261 259 256 255 256 255 253 254 255 253 246 237 233 234 233 233 235 237 237 234 227 221 220 223 228 232 234 236 238 240 240 241 243 245 247 249 251 253 254 256 258 260 261 262 263 264 264 266 267 269 270 272 274 275 276 277 279 280 281 283 283 284 285 285 286 287 287 288 288 289 289 289 289 289 289 288 288 288 288 287 287 287 287 287
257 256 259 259 258 259 260 259 257 258 260 257 246 234 230 230 232 234 232 228 225 227 229 232 235 238 240 242 243 243 242 242 244 245 247 250 252 254 255 257 258 259 260 261 262 263 264 265 266 267 269 271 272 274 275 277 278 280 281 283 284 284 285 286 286 287 288 288 289 290 290 290 290 289 289 289 288 288 288 287 287 287 287 287 287
245 243 250 253 253 254 257 258 257 257 259 259 254 247 241 238 238 238 234 228 226 228 230 231 234 236 238 240 242 243 245 245 245 245 247 250 251 253 254 255 256 257 259 262 264 265 265 266 267 268 270 272 274 275 277 279 280 282 283 284 285 286 287 287 288 289 289 290 290 290 290 289 289 288 288 288 288 288 288 288 288 289 289 289 289
250 246 247 248 247 246 245 246 245 243 245 248 252 253 252 249 247 245 242 239 237 237 235 234 234 237 241 243 244 245 245 244 244 244 244 246 248 250 252 254 256 258 261 263 264 264 265 266 269 272 274 276 277 279 280 282 283 284 285 286 287 287 288 289 289 289 289 289 289 289 289 288 288 288 288 289 289 290 290 291 291 291 291 291 290
250 251 252 252 252 249 246 244 241 238 238 242 247 249 249 248 249 249 249 249 249 250 251 249 248 249 251 252 252 251 250 249 249 248 249 250 251 253 255 257 258 260 261 262 263 265 268 271 274 276 278 279 280 281 282 284 285 285 286 287 287 288 288 288 289 289 289 289 288 288 288 288 288 288 289 289 290 291 292 292 292 292 291 291 290
244 247 249 250 252 252 252 251 249 247 245 246 248 248 247 246 246 247 248 250 251 253 254 254 253 252 252 251 251 251 251 250 250 251 252 254 255 257 258 259 261 262 264 266 268 271 273 275 276 278 279 280 281 282 283 284 285 285 286 287 287 288 288 288 288 288 288 288 288 289 289 289 290 290 290 290 291 291 292 292 293 292 292 292 291
244 244 246 248 249 250 251 253 254 254 254 254 253 252 251 250 250 250 250 250 251 252 252 252 252 251 251 250 251 251 251 252 253 254 256 258 260 263 265 266 267 268 270 271 272 274 275 276 278 279 280 281 282 283 284 285 285 286 286 287 287 288 288 288 288 289 289 289 290 290 290 290 290 291 291 292 293 293 294 294 294 294 294 293 293
249 247 247 249 250 250 250 251 253 254 256 257 257 256 255 254 255 255 255 255 255 255 255 256 256 256 256 257 257 258 259 260 261 262 262 263 265 266 268 270 271 272 273 274 276 277 278 279 280 281 282 283 284 284 285 285 286 286 287 287 287 288 288 289 289 290 290 290 290 290 290 291 291 292 293 294 295 296 296 296 297 297 297 297 297
253 251 249 248 249 250 251 250 250 251 252 254 255 256 256 256 256 257 257 257 258 258 259 259 259 259 260 261 262 263 263 264 265 266 267 268 269 270 271 273 274 275 276 277 278 279 280 281 282 282 283 283 283 284 285 285 286 286 286 287 287 287 288 288 288 288 289 289 290 291 292 293 294 295 295 296 297 297 298 298 299 299 299 300 302
256 256 255 252 251 252 253 253 252 251 251 251 252 252 253 254 255 257 258 259 259 260 261 261 262 262 263 264 265 266 266 267 268 270 271 271 272 274 275 275 276 276 277 278 279 279 280 281 281 282 282 283 283 284 284 285 285 285 285 285 285 286 286 287 288 289 290 291 293 294 295 295 296 297 298 299 299 299 299 300 300 301 302 304 306
259 259 260 259 258 257 259 260 260 258 258 257 257 257 257 257 257 259 260 261 262 263 263 264 264 264 265 267 268 269 270 270 271 272 272 273 274 274 275 275 275 276 277 278 279 279 280 280 280 281 281 281 282 282 283 283 283 283 283 284 285 287 288 290 291 292 293 294 295 296 297 298 300 300 301 301 302 302 302 302 303 304 306 308 308
262 262 262 262 262 262 263 264 265 265 265 265 265 264 264 263 263 264 264 263 264 266 267 267 267 267 267 268 269 269 270 271 271 271 271 272 272 273 273 273 274 275 276 276 276 277 277 278 278 278 279 279 280 280 281 281 282 284 286 288 290 291 292 293 294 294 294 295 296 298 300 301 302 303 303 304 304 305 305 304 305 307 309 309 309
263 263 263 263 263 262 263 265 266 266 266 267 267 267 267 266 266 267 266 266 266 266 267 267 268 269 269 268 268 268 268 268 269 269 270 270 270 271 271 272 273 273 274 274 274 275 275 276 277 277 278 279 279 280 282 284 286 289 290 292 293 293 294 294 295 295 296 297 299 301 302 303 303 304 305 306 307 308 306 305 307 311 311 309 310
262 262 262 262 262 261 261 261 262 262 263 264 264 265 265 265 265 264 265 265 266 266 265 265 266 267 267 267 267 267 266 266 267 267 268 268 268 269 269 270 271 271 272 272 273 274 275 276 276 277 279 280 282 284 286 288 290 292 293 293 294 295 295 295 296 296 298 300 302 303 304 305 305 306 307 307 309 309 308 308 312 314 312 310 311
259 259 259 259 260 260 259 258 258 258 258 259 260 261 262 263 263 262 262 263 264 263 263 263 262 262 263 264 264 264 264 265 266 266 266 266 267 267 268 268 269 270 271 272 273 274 275 276 278 279 281 283 285 287 289 290 291 292 293 294 295 296 296 296 297 298 300 302 304 304 305 307 308 309 309 308 308 309 309 311 316 317 313 310 312
258 257 257 257 257 257 257 257 257 256 255 255 256 257 258 259 260 260 261 262 262 262 262 262 262 261 261 261 261 261 262 263 264 265 265 266 266 267 267 268 269 270 272 273 274 275 277 278 280 282 283 285 287 289 290 292 292 293 294 295 295 296 296 297 299 300 302 303 303 305 307 310 311 311 310 308 307 308 309 312 318 319 314 309 312
258 257 256 255 254 255 255 256 256 255 254 253 253 253 254 255 256 256 257 258 259 260 260 261 261 261 261 261 261 261 262 262 263 264 264 265 266 267 268 269 270 271 273 274 275 277 278 279 281 283 285 287 289 290 292 293 294 295 295 295 295 295 296 297 299 301 302 303 305 308 311 313 312 312 311 308 307 307 308 311 319 323 318 311 311
262 260 258 256 254 253 253 254 254 254 253 253 252 252 251 252 253 253 254 255 256 257 257 258 259 259 259 260 260 261 261 261 262 262 263 264 265 266 267 268 270 271 273 274 275 276 278 280 282 284 287 289 291 292 293 294 295 295 295 295 295 295 296 298 299 300 301 304 308 312 315 316 314 313 313 311 308 307 307 310 318 324 321 313 307
268 265 265 263 259 255 253 253 253 253 253 253 253 252 252 252 252 252 252 253 254 254 255 256 257 257 257 258 259 259 260 260 260 261 262 262 263 265 266 268 269 271 272 273 275 277 279 282 285 288 291 293 294 295 295 295 294 294 294 294 294 295 296 297 298 299 302 305 309 314 318 320 317 314 314 313 310 308 307 308 314 322 325 318 307
273 272 273 272 269 264 258 256 256 256 254 253 254 254 254 254 254 254 254 253 253 254 254 255 255 256 256 257 257 258 258 258 259 259 260 261 262 264 265 267 268 270 271 273 276 279 283 287 291 293 295 296 297 296 296 295 294 294 294 294 294 295 296 296 297 299 303 306 310 314 319 322 320 316 315 315 313 310 307 306 310 318 326 325 314
276 276 276 276 275 272 267 263 263 263 261 258 256 256 257 257 257 256 256 255 255 255 255 255 255 255 255 255 255 255 256 256 257 257 258 260 261 263 264 266 268 270 272 276 280 285 290 293 296 298 298 298 297 296 295 295 295 294 294 294 294 295 295 296 298 300 303 306 309 314 319 322 321 318 317 317 317 312 308 306 308 314 323 328 325
275 275 275 276 277 277 274 269 267 268 268 265 263 261 261 260 259 259 258 257 257 257 256 256 256 256 255 254 254 253 253 253 254 255 256 258 260 262 264 266 269 272 276 281 287 293 297 300 301 301 300 299 297 296 295 296 296 296 295 295 295 295 296 297 299 301 304 306 308 313 318 322 322 320 319 320 319 316 310 308 309 313 319 325 328
275 275 276 277 278 278 276 273 270 268 269 268 267 265 264 263 261 260 259 258 257 256 256 255 255 254 252 251 250 249 249 250 251 253 255 258 260 263 266 269 273 278 283 290 295 300 303 305 305 304 302 300 298 298 299 299 299 299 298 298 298 297 297 298 300 302 304 306 308 312 318 322 323 321 320 321 320 318 314 309 307 310 315 320 326
285 284 283 281 279 277 275 273 271 269 269 268 267 266 264 261 259 258 257 256 254 253 252 251 250 248 246 245 245 245 246 248 251 254 257 260 262 265 268 272 277 284 290 295 300 304 306 307 306 304 302 301 301 301 301 301 301 301 301 301 300 299 299 300 301 303 305 307 308 311 317 323 324 322 321 320 319 319 319 315 310 307 309 314 321
294 292 290 287 284 280 277 275 272 269 268 266 265 263 262 260 258 256 254 252 250 249 247 245 243 242 241 241 242 243 245 248 251 255 259 262 264 267 270 275 281 287 292 297 301 305 307 308 306 304 302 302 302 302 302 302 303 303 303 303 302 301 301 301 303 304 306 308 309 311 317 322 324 322 320 320 318 319 320 321 317 310 305 306 312
Height
5752 5752 5749 5748 5752 5756 5758 5760 5761 5762 5763 5764 5764 5765 5766 5767 5767 5767 5767 5767 5768 5768 5768 5769 5769 5770 5770 5771 5771 5771 5771 5772 5774 5775 5776 5777 5778 5779 5781 5782 5783 5784 5785 5787 5788 5788 5789 5790 5790 5791 5791 5792 5792 5793 5794 5794 5794 5795 5796 5796 5797 5797 5797 5798 5798 5798 5798 5798 5798 5799 5798 5798 5799 5799 5799 5799 5799 5798 5798 5797 5797 5796 5796 5795 5795
5750 5750 5749 5746 5748 5753 5755 5756 5758 5760 5761 5762 5762 5762 5763 5765 5765 5765 5765 5765 5765 5766 5766 5767 5768 5768 5769 5769 5769 5769 5770 5770 5772 5774 5775 5776 5777 5777 5778 5780 5781 5782 5783 5784 5785 5786 5787 5788 5788 5789 5790 5790 5790 5791 5792 5792 5792 5793 5794 5794 5795 5796 5795 5795 5796 5796 5796 5796 5796 5796 5796 5796 5797 5797 5797 5797 5796 5796 5795 5795 5794 5794 5794 5793 5792
5746 5748 5750 5748 5747 5749 5752 5754 5755 5757 5759 5759 5760 5760 5761 5762 5763 5764 5764 5764 5764 5764 5764 5765 5766 5766 5767 5767 5767 5768 5768 5769 5770 5772 5773 5774 5775 5776 5776 5777 5779 5780 5781 5782 5783 5783 5784 5785 5786 5787 5787 5787 5788 5788 5789 5790 5790 5791 5792 5793 5793 5794 5793 5793 5794 5794 5794 5794 5794 5794 5794 5794 5794 5794 5794 5794 5794 5793 5793 5792 5792 5791 5791 5790 5790
5745 5747 5749 5750 5748 5748 5749 5751 5752 5754 5756 5756 5757 5758 5759 5760 5761 5762 5763 5762 5762 5762 5762 5763 5764 5764 5765 5766 5766 5766 5767 5767 5768 5769 5771 5772 5773 5774 5775 5776 5777 5778 5779 5780 5781 5781 5782 5783 5783 5784 5785 5785 5785 5786 5788 5789 5789 5789 5790 5791 5792 5792 5792 5791 5792 5792 5792 5792 5791 5791 5792 5792 5792 5792 5792 5791 5791 5790 5790 5789 5789 5788 5788 5788 5787
5743 5744 5746 5748 5749 5749 5748 5749 5750 5752 5752 5753 5753 5754 5755 5757 5758 5760 5761 5761 5760 5760 5760 5761 5761 5763 5764 5764 5764 5764 5765 5765 5766 5767 5768 5769 5771 5772 5773 5775 5775 5776 5777 5778 5778 5779 5780 5780 5781 5782 5783 5783 5784 5785 5786 5787 5788 5787 5788 5789 5790 5790 5790 5789 5789 5790 5790 5790 5789 5789 5789 5789 5789 5789 5789 5789 5788 5787 5787 5786 5786 5786 5785 5785 5784
5739 5741 5743 5745 5747 5747 5747 5748 5749 5750 5750 5750 5751 5751 5752 5753 5755 5757 5758 5759 5759 5758 5758 5759 5760 5761 5762 5761 5761 5761 5762 5763 5764 5765 5766 5767 5768 5769 5771 5773 5773 5775 5775 5776 5777 5778 5778 5779 5779 5780 5781 5781 5782 5783 5784 5785 5785 5785 5785 5786 5787 5787 5788 5787 5786 5786 5787 5787 5787 5787 5787 5787 5786 5786 5786 5786 5785 5785 5784 5784 5783 5783 5783 5782 5782
5736 5738 5740 5742 5743 5745 5745 5746 5746 5747 5747 5747 5748 5749 5750 5750 5752 5754 5755 5756 5756 5756 5756 5757 5758 5758 5758 5758 5758 5759 5760 5761 5762 5763 5764 5765 5765 5766 5768 5769 5771 5772 5773 5773 5775 5776 5776 5777 5778 5778 5778 5778 5780 5781 5782 5782 5782 5782 5783 5783 5784 5784 5785 5784 5784 5783 5784 5784 5784 5784 5784 5784 5784 5783 5783 5782 5782 5782 5782 5781 5781 5781 5780 5780 5779
5735 5737 5738 5739 5740 5741 5742 5743 5743 5743 5744 5744 5744 5745 5746 5748 5749 5750 5751 5752 5753 5753 5753 5754 5754 5755 5755 5755 5756 5757 5758 5759 5760 5762 5763 5764 5764 5765 5766 5767 5768 5770 5770 5770 5772 5773 5774 5774 5775 5776 5776 5776 5777 5778 5779 5780 5780 5780 5780 5780 5780 5781 5781 5781 5781 5781 5781 5781 5781 5781 5781 5781 5780 5780 5780 5780 5779 5778 5778 5778 5778 5777 5777 5776 5776
5733 5735 5736 5735 5735 5736 5738 5740 5740 5740 5740 5739 5739 5740 5742 5744 5746 5746 5747 5748 5749 5749 5751 5751 5750 5751 5751 5752 5754 5756 5757 5757 5758 5759 5760 5761 5762 5763 5763 5764 5765 5767 5767 5767 5769 5770 5771 5771 5772 5773 5773 5773 5774 5775 5776 5777 5777 5777 5777 5777 5777 5777 5777 5778 5778 5778 5778 5777 5777 5778 5778 5777 5776 5776 5776 5776 5776 5775 5775 5775 5774 5774 5773 5773 5772
5730 5732 5733 5732 5732 5733 5734 5735 5736 5736 5735 5735 5736 5737 5738 5741 5743 5742 5743 5744 5744 5747 5749 5748 5747 5747 5748 5750 5751 5753 5754 5755 5755 5756 5757 5758 5759 5760 5761 5761 5762 5764 5764 5765 5766 5767 5768 5768 5769 5769 5770 5771 5771 5772 5773 5774 5774 5774 5774 5774 5774 5773 5773 5774 5774 5774 5774 5774 5774 5774 5774 5773 5773 5772 5772 5771 5771 5771 5771 5770 5770 5770 5769 5769 5769
5727 5728 5729 5729 5729 5729 5730 5730 5731 5732 5731 5731 5733 5734 5736 5739 5739 5739 5739 5740 5741 5744 5746 5744 5744 5744 5745 5747 5748 5750 5751 5752 5753 5754 5754 5755 5757 5758 5758 5758 5759 5760 5761 5762 5763 5764 5764 5765 5765 5766 5768 5768 5769 5769 5770 5770 5770 5770 5770 5770 5771 5771 5770 5770 5769 5769 5769 5770 5770 5769 5769 5768 5768 5767 5767 5766 5766 5765 5765 5764 5764 5764 5764 5764 5764
5724 5725 5725 5727 5727 5726 5726 5726 5727 5727 5728 5728 5730 5731 5733 5735 5736 5735 5736 5737 5739 5742 5741 5740 5741 5742 5743 5744 5745 5746 5748 5749 5750 5751 5751 5752 5753 5754 5755 5755 5756 5757 5759 5759 5760 5760 5761 5762 5763 5763 5764 5765 5765 5765 5766 5766 5767 5767 5767 5767 5767 5767 5767 5766 5765 5765 5765 5765 5765 5764 5764 5763 5763 5762 5762 5761 5761 5761 5760 5759 5758 5758 5758 5758 5758
5721 5722 5722 5723 5724 5723 5724 5724 5724 5723 5724 5725 5727 5728 5729 5731 5732 5732 5733 5735 5737 5738 5738 5737 5739 5740 5740 5741 5742 5743 5744 5745 5746 5747 5748 5749 5750 5751 5752 5752 5753 5754 5755 5756 5756 5756 5758 5759 5759 5759 5760 5761 5761 5762 5762 5762 5762 5762 5763 5763 5763 5763 5763 5762 5762 5762 5761 5761 5761 5760 5760 5759 5758 5758 5757 5757 5757 5756 5756 5755 5754 5753 5753 5753 5752
5717 5718 5719 5720 5720 5720 5720 5721 5720 5720 5720 5722 5723 5724 5725 5726 5727 5728 5730 5732 5734 5734 5734 5735 5736 5737 5737 5738 5738 5739 5740 5742 5743 5743 5744 5746 5747 5748 5748 5749 5750 5751 5752 5752 5753 5754 5755 5756 5755 5756 5757 5758 5758 5758 5758 5758 5758 5758 5758 5758 5758 5758 5758 5758 5758 5758 5758 5758 5757 5756 5756 5755 5754 5753 5753 5753 5752 5751 5751 5750 5749 5749 5749 5748 5748
5714 5715 5716 5717 5717 5716 5716 5717 5718 5717 5718 5719 5720 5721 5720 5721 5722 5725 5727 5729 5730 5730 5731 5732 5733 5734 5734 5735 5736 5737 5737 5738 5739 5740 5741 5742 5743 5744 5745 5746 5747 5748 5748 5748 5750 5751 5752 5752 5752 5753 5754 5754 5755 5754 5754 5754 5754 5754 5754 5753 5753 5753 5753 5753 5753 5753 5753 5753 5753 5752 5751 5750 5750 5749 5748 5747 5747 5746 5746 5745 5744 5744 5743 5742 5742
5710 5711 5712 5713 5713 5712 5712 5713 5714 5715 5715 5716 5717 5717 5717 5717 5719 5721 5723 5725 5726 5727 5728 5728 5729 5730 5731 5731 5732 5734 5734 5735 5736 5737 5738 5738 5739 5741 5742 5743 5744 5745 5745 5746 5747 5748 5749 5749 5749 5749 5750 5750 5750 5750 5750 5749 5749 5750 5749 5749 5749 5749 5749 5749 5749 5748 5748 5748 5748 5747 5746 5745 5745 5744 5743 5742 5741 5740 5739 5739 5738 5737 5736 5735 5735
5706 5707 5708 5708 5708 5709 5708 5708 5709 5710 5711 5712 5713 5713 5714 5715 5716 5717 5719 5720 5722 5723 5724 5724 5726 5727 5727 5728 5729 5730 5731 5732 5733 5734 5734 5735 5735 5736 5738 5740 5740 5741 5741 5742 5742 5743 5745 5745 5745 5745 5745 5745 5745 5745 5745 5745 5745 5745 5745 5745 5745 5745 5745 5745 5744 5744 5744 5743 5743 5743 5742 5741 5739 5738 5737 5736 5735 5734 5733 5733 5732 5730 5728 5728 5728
5702 5702 5703 5704 5704 5705 5704 5704 5705 5705 5706 5707 5708 5709 5710 5712 5712 5713 5715 5716 5718 5719 5720 5721 5722 5723 5724 5725 5726 5727 5728 5729 5729 5730 5730 5731 5731 5732 5734 5736 5736 5736 5737 5737 5738 5739 5740 5741 5741 5741 5741 5741 5741 5741 5741 5741 5741 5741 5741 5741 5741 5741 5740 5740 5740 5739 5739 5739 5738 5738 5737 5736 5734 5733 5732 5730 5728 5727 5726 5725 5724 5721 5720 5720 5720
5698 5698 5698 5699 5699 5700 5700 5700 5701 5702 5702 5703 5704 5704 5706 5707 5708 5709 5711 5712 5714 5716 5717 5717 5718 5719 5720 5722 5723 5724 5725 5725 5725 5726 5726 5727 5727 5728 5730 5731 5732 5732 5733 5734 5734 5735 5736 5736 5737 5737 5736 5736 5736 5737 5737 5737 5737 5737 5737 5737 5736 5736 5736 5735 5735 5734 5734 5733 5733 5732 5731 5730 5729 5728 5726 5724 5722 5720 5718 5718 5716 5713 5713 5713 5711
5695 5695 5695 5694 5695 5694 5694 5695 5697 5698 5699 5699 5699 5700 5701 5702 5703 5705 5706 5708 5710 5712 5713 5714 5715 5716 5717 5718 5719 5720 5721 5721 5721 5722 5723 5723 5723 5724 5725 5727 5728 5728 5729 5730 5731 5731 5731 5732 5732 5732 5732 5732 5732 5732 5732 5733 5733 5732 5732 5732 5732 5731 5731 5730 5729 5729 5728 5727 5726 5726 5725 5724 5722 5721 5720 5718 5716 5713 5711 5710 5708 5706 5704 5704 5703
5691 5692 5691 5692 5692 5691 5690 5691 5692 5694 5695 5695 5694 5695 5696 5697 5699 5701 5702 5704 5706 5708 5709 5711 5712 5712 5713 5714 5715 5716 5717 5717 5718 5718 5719 5719 5720 5720 5721 5723 5724 5725 5725 5726 5726 5727 5727 5727 5727 5727 5727 5727 5727 5728 5727 5727 5727 5727 5727 5727 5726 5726 5725 5724 5724 5723 5722 5721 5720 5719 5718 5717 5715 5714 5712 5711 5709 5706 5704 5702 5700 5697 5695 5693 5693
5688 5688 5688 5689 5689 5689 5690 5690 5690 5691 5692 5692 5691 5692 5693 5695 5696 5698 5698 5700 5702 5703 5705 5706 5707 5708 5709 5710 5711 5712 5713 5713 5714 5714 5715 5715 5716 5716 5717 5718 5720 5721 5721 5721 5722 5722 5723 5723 5723 5723 5723 5722 5722 5722 5722 5722 5722 5722 5722 5722 5721 5720 5720 5719 5718 5717 5716 5715 5714 5712 5711 5710 5709 5707 5705 5703 5701 5699 5697 5695 5691 5688 5685 5683 5681
5684 5684 5685 5686 5686 5686 5687 5687 5686 5687 5688 5688 5688 5689 5690 5692 5693 5693 5694 5695 5697 5699 5700 5701 5703 5704 5705 5706 5707 5707 5708 5708 5709 5710 5711 5711 5712 5713 5713 5714 5715 5717 5717 5717 5717 5718 5719 5719 5719 5718 5718 5718 5717 5717 5717 5717 5716 5716 5716 5716 5715 5714 5713 5713 5712 5711 5709 5708 5707 5705 5704 5703 5702 5699 5697 5696 5694 5692 5689 5686 5682 5678 5676 5673 5671
5680 5680 5681 5681 5682 5683 5683 5683 5682 5683 5683 5684 5684 5685 5686 5688 5689 5689 5689 5691 5692 5694 5695 5697 5698 5699 5700 5701 5702 5702 5702 5703 5704 5706 5706 5707 5708 5708 5709 5710 5711 5712 5712 5713 5713 5714 5714 5714 5714 5714 5713 5713 5713 5713 5712 5712 5711 5711 5710 5709 5708 5707 5706 5705 5704 5703 5702 5701 5699 5698 5696 5695 5693 5691 5689 5687 5686 5683 5680 5676 5672 5668 5665 5663 5661
5676 5676 5677 5677 5678 5679 5679 5680 5680 5679 5680 5680 5681 5682 5683 5684 5685 5685 5686 5687 5688 5689 5691 5692 5693 5694 5696 5697 5697 5697 5696 5698 5700 5701 5702 5702 5703 5704 5705 5705 5706 5707 5708 5708 5708 5708 5708 5708 5708 5708 5708 5708 5708 5708 5707 5707 5706 5705 5704 5703 5702 5701 5700 5699 5698 5697 5695 5694 5692 5690 5688 5686 5684 5682 5680 5678 5675 5673 5670 5667 5663 5658 5655 5652 5650
5671 5672 5673 5673 5674 5675 5675 5676 5677 5677 5677 5677 5678 5679 5679 5680 5681 5682 5683 5683 5684 5685 5687 5688 5689 5690 5691 5691 5691 5690 5691 5693 5695 5696 5697 5698 5699 5700 5701 5701 5701 5702 5702 5702 5702 5702 5703 5703 5703 5703 5703 5702 5702 5701 5700 5699 5699 5698 5697 5697 5696 5695 5693 5692 5691 5690 5689 5687 5685 5683 5681 5678 5675 5673 5671 5668 5665 5662 5659 5656 5652 5648 5644 5640 5638
5667 5668 5668 5669 5670 5671 5671 5672 5673 5674 5674 5675 5675 5676 5676 5676 5677 5678 5679 5679 5681 5682 5683 5684 5685 5686 5686 5686 5686 5686 5687 5689 5691 5692 5693 5694 5695 5695 5696 5696 5696 5697 5697 5696 5697 5697 5697 5697 5697 5697 5697 5696 5695 5694 5693 5692 5692 5691 5690 5690 5689 5687 5686 5685 5684 5683 5681 5678 5676 5674 5672 5669 5666 5663 5660 5657 5654 5651 5647 5644 5640 5637 5632 5628 5626
5663 5664 5664 5665 5666 5667 5668 5668 5669 5669 5670 5671 5672 5673 5673 5674 5674 5675 5676 5677 5678 5679 5680 5681 5682 5683 5683 5683 5682 5683 5684 5685 5687 5688 5689 5689 5690 5690 5691 5691 5691 5691 5691 5691 5691 5691 5691 5691 5691 5692 5691 5690 5689 5688 5687 5686 5686 5685 5684 5682 5681 5680 5678 5677 5676 5674 5672 5670 5667 5665 5663 5659 5656 5653 5650 5646 5643 5640 5637 5633 5629 5626 5621 5617 5614
5658 5660 5661 5662 5662 5663 5664 5665 5665 5666 5667 5668 5668 5669 5670 5671 5672 5672 5673 5674 5675 5676 5676 5677 5678 5679 5679 5679 5679 5679 5680 5681 5682 5683 5684 5684 5685 5685 5685 5685 5686 5686 5686 5686 5686 5686 5685 5685 5685 5685 5685 5684 5683 5682 5681 5680 5679 5678 5677 5676 5674 5672 5671 5669 5667 5665 5662 5660 5658 5655 5653 5650 5646 5643 5640 5636 5632 5628 5625 5622 5619 5615 5610 5606 5603
5654 5655 5656 5657 5658 5659 5660 5661 5662 5663 5663 5664 5665 5666 5666 5667 5668 5669 5670 5671 5671 5672 5673 5674 5674 5675 5675 5675 5675 5675 5675 5676 5677 5678 5679 5679 5679 5679 5679 5679 5680 5680 5681 5681 5680 5680 5679 5679 5679 5679 5678 5677 5676 5676 5675 5673 5672 5671 5670 5668 5667 5665 5662 5660 5657 5655 5653 5651 5648 5645 5643 5640 5636 5633 5629 5626 5622 5617 5613 5610 5607 5604 5601 5596 5593
5649 5651 5651 5652 5653 5654 5655 5656 5657 5658 5659 5659 5660 5661 5661 5662 5663 5664 5665 5666 5667 5667 5668 5669 5669 5670 5670 5670 5670 5670 5670 5671 5671 5672 5673 5674 5674 5674 5673 5673 5674 5675 5675 5675 5674 5673 5673 5673 5672 5672 5671 5671 5670 5669 5668 5666 5665 5664 5662 5660 5658 5656 5653 5651 5648 5646 5644 5641 5638 5635 5632 5629 5626 5622 5619 5615 5611 5607 5604 5600 5597 5594 5591 5587 5583
5644 5645 5646 5647 5648 5649 5650 5650 5651 5652 5653 5654 5654 5655 5656 5657 5658 5659 5660 5661 5662 5662 5662 5663 5663 5664 5664 5664 5664 5664 5665 5665 5666 5666 5667 5667 5667 5667 5667 5667 5668 5669 5669 5668 5667 5667 5667 5667 5666 5666 5666 5664 5663 5662 5661 5659 5658 5656 5654 5652 5649 5647 5644 5642 5639 5637 5634 5631 5628 5625 5621 5618 5615 5611 5608 5605 5601 5598 5595 5591 5588 5584 5581 5578 5574
5639 5640 5641 5642 5643 5644 5644 5644 5645 5646 5647 5648 5648 5649 5650 5652 5652 5653 5654 5655 5655 5656 5656 5656 5657 5658 5658 5658 5659 5659 5659 5660 5660 5660 5661 5661 5660 5660 5661 5661 5662 5662 5662 5661 5661 5661 5661 5661 5660 5660 5659 5658 5656 5654 5653 5652 5650 5648 5646 5643 5641 5638 5635 5633 5630 5627 5624 5621 5618 5615 5612 5609 5605 5602 5598 5595 5592 5589 5586 5583 5579 5576 5572 5569 5565
5634 5635 5635 5636 5637 5638 5637 5638 5639 5641 5642 5642 5642 5643 5644 5645 5646 5646 5647 5648 5649 5649 5650 5650 5651 5651 5652 5652 5653 5653 5653 5654 5654 5654 5654 5654 5654 5654 5655 5656 5656 5656 5655 5655 5655 5655 5654 5654 5653 5652 5651 5650 5648 5646 5645 5644 5642 5640 5637 5635 5632 5629 5627 5624 5621 5618 5615 5612 5609 5606 5603 5600 5597 5594 5590 5587 5583 5580 5577 5573 5570 5567 5563 5560 5556
5628 5629 5630 5631 5632 5632 5632 5633 5634 5634 5635 5636 5636 5637 5638 5639 5639 5640 5641 5642 5642 5643 5644 5644 5644 5645 5646 5646 5647 5647 5647 5647 5648 5648 5648 5648 5648 5649 5650 5650 5650 5648 5648 5648 5648 5647 5647 5646 5646 5644 5643 5642 5640 5639 5637 5636 5634 5632 5629 5627 5624 5622 5619 5616 5614 5611 5608 5604 5601 5598 5595 5592 5588 5585 5583 5579 5576 5573 5569 5566 5563 5560 5556 5552 5549
5623 5623 5624 5625 5626 5627 5627 5628 5628 5629 5629 5630 5630 5631 5632 5634 5634 5634 5635 5636 5636 5637 5638 5638 5637 5639 5640 5641 5641 5641 5641 5641 5642 5642 5642 5642 5642 5643 5643 5644 5643 5641 5640 5641 5641 5640 5639 5639 5638 5637 5636 5635 5633 5631 5630 5628 5626 5624 5622 5620 5617 5615 5612 5609 5606 5603 5600 5596 5593 5590 5587 5584 5581 5578 5574 5572 5569 5566 5563 5559 5556 5553 5550 5546 5542
5617 5617 5618 5619 5620 5621 5622 5622 5622 5624 5624 5624 5625 5626 5627 5628 5629 5629 5629 5630 5630 5631 5632 5631 5631 5634 5635 5635 5634 5634 5634 5635 5636 5636 5636 5636 5636 5636 5637 5636 5636 5634 5633 5634 5634 5633 5632 5632 5631 5630 5629 5627 5626 5624 5623 5621 5619 5617 5615 5613 5610 5607 5604 5601 5598 5595 5592 5589 5586 5583 5580 5577 5574 5571 5568 5565 5562 5559 5556 5553 5550 5547 5544 5541 5538
5610 5611 5612 5612 5613 5615 5615 5615 5616 5618 5619 5618 5619 5620 5620 5621 5622 5622 5622 5624 5626 5626 5625 5624 5626 5628 5629 5629 5628 5628 5628 5628 5629 5630 5630 5630 5630 5630 5629 5629 5629 5628 5627 5627 5627 5626 5625 5624 5624 5623 5622 5620 5619 5617 5616 5614 5611 5609 5607 5604 5602 5599 5596 5594 5591 5588 5586 5583 5580 5577 5574 5571 5568 5565 5562 5559 5556 5553 5550 5548 5545 5542 5540 5537 5534
5603 5604 5605 5605 5607 5608 5609 5610 5611 5612 5612 5612 5613 5613 5614 5615 5616 5616 5615 5617 5620 5621 5619 5618 5619 5621 5622 5623 5623 5623 5623 5622 5622 5623 5623 5623 5623 5623 5623 5622 5622 5622 5621 5621 5620 5620 5619 5618 5617 5616 5614 5613 5612 5610 5608 5606 5604 5601 5598 5596 5594 5591 5589 5587 5584 5582 5579 5576 5574 5571 5568 5565 5563 5560 5557 5554 5551 5548 5546 5543 5541 5538 5535 5533 5530
5596 5597 5598 5598 5600 5601 5602 5603 5604 5605 5606 5606 5606 5607 5607 5609 5610 5610 5609 5610 5613 5614 5613 5613 5614 5615 5615 5616 5616 5616 5616 5616 5616 5617 5617 5617 5617 5617 5616 5616 5615 5615 5615 5614 5614 5613 5612 5611 5610 5608 5607 5606 5604 5603 5601 5598 5596 5594 5591 5589 5587 5585 5583 5580 5578 5575 5573 5570 5568 5565 5563 5560 5558 5555 5552 5550 5547 5545 5542 5540 5537 5534 5531 5529 5527
5588 5589 5590 5591 5593 5594 5595 5596 5597 5598 5600 5600 5600 5600 5601 5602 5603 5603 5603 5604 5606 5607 5607 5608 5609 5609 5609 5610 5610 5609 5609 5609 5610 5610 5610 5610 5610 5610 5610 5610 5609 5609 5608 5608 5607 5606 5605 5604 5603 5601 5600 5599 5597 5595 5594 5592 5590 5588 5586 5583 5581 5579 5576 5574 5571 5569 5567 5565 5563 5561 5558 5556 5553 5551 5548 5545 5543 5541 5539 5537 5534 5531 5528 5526 5524
5581 5581 5582 5584 5585 5586 5588 5589 5590 5591 5593 5593 5593 5594 5595 5595 5596 5597 5597 5598 5600 5601 5601 5601 5602 5603 5603 5603 5603 5603 5603 5603 5603 5604 5603 5603 5604 5604 5603 5603 5603 5602 5602 5601 5601 5600 5599 5597 5596 5595 5593 5592 5591 5589 5587 5585 5583 5581 5580 5578 5575 5573 5571 5568 5566 5564 5562 5560 5559 5557 5554 5552 5549 5546 5544 5542 5540 5538 5536 5534 5531 5529 5526 5523 5522
5574 5574 5574 5576 5578 5579 5581 5582 5583 5584 5585 5586 5586 5587 5588 5588 5589 5590 5591 5592 5593 5594 5594 5595 5596 5596 5597 5596 5596 5597 5597 5597 5597 5597 5597 5597 5597 5597 5597 5597 5597 5596 5596 5595 5595 5594 5593 5591 5590 5589 5588 5586 5585 5583 5581 5579 5577 5575 5573 5572 5570 5568 5566 5564 5561 5559 5558 5556 5554 5553 5550 5548 5545 5543 5540 5538 5536 5534 5533 5531 5529 5526 5524 5522 5520
5569 5568 5567 5569 5571 5573 5574 5574 5574 5575 5577 5578 5578 5580 5581 5581 5581 5583 5585 5585 5586 5587 5587 5588 5589 5590 5590 5590 5590 5591 5591 5591 5592 5592 5592 5592 5592 5592 5592 5592 5591 5591 5590 5590 5589 5588 5587 5586 5585 5583 5582 5580 5579 5577 5575 5574 5571 5569 5567 5566 5564 5563 5561 5559 5557 5556 5554 5552 5551 5549 5546 5544 5541 5539 5537 5535 5533 5531 5529 5528 5526 5524 5522 5520 5518
5564 5563 5562 5564 5566 5567 5568 5568 5567 5568 5569 5570 5571 5572 5573 5574 5575 5576 5578 5579 5580 5580 5581 5582 5583 5584 5584 5585 5585 5585 5585 5586 5586 5586 5586 5587 5587 5587 5587 5587 5586 5586 5585 5585 5584 5583 5582 5581 5580 5578 5576 5575 5573 5571 5569 5568 5566 5564 5563 5561 5559 5558 5557 5555 5554 5552 5551 5549 5547 5545 5543 5540 5538 5536 5533 5531 5529 5528 5526 5525 5523 5521 5520 5518 5516
5560 5559 5559 5559 5560 5562 5563 5562 5562 5562 5563 5564 5564 5565 5566 5568 5569 5570 5572 5573 5574 5574 5575 5576 5577 5578 5579 5579 5579 5580 5580 5581 5581 5581 5581 5582 5582 5582 5582 5582 5582 5581 5581 5580 5579 5578 5577 5576 5574 5572 5571 5569 5568 5565 5564 5563 5561 5560 5558 5557 5555 5554 5553 5551 5550 5548 5547 5545 5543 5542 5540 5537 5535 5532 5530 5528 5526 5525 5523 5522 5520 5519 5518 5516 5514
5557 5556 5556 5555 5556 5557 5558 5558 5558 5557 5557 5558 5559 5560 5561 5562 5563 5564 5566 5567 5568 5569 5570 5571 5572 5573 5573 5574 5575 5575 5575 5576 5576 5576 5577 5577 5577 5577 5577 5577 5577 5577 5576 5575 5574 5573 5572 5570 5569 5567 5566 5565 5563 5561 5559 5558 5557 5556 5554 5552 5551 5550 5548 5547 5546 5544 5543 5541 5540 5538 5536 5534 5532 5529 5527 5525 5524 5522 5521 5519 5518 5517 5516 5514 5512
5554 5553 5553 5552 5552 5552 5553 5554 5555 5554 5553 5554 5555 5556 5557 5558 5559 5559 5561 5562 5563 5564 5565 5566 5567 5568 5568 5569 5570 5570 5571 5571 5572 5572 5572 5573 5573 5573 5573 5573 5572 5572 5571 5570 5569 5568 5567 5566 5564 5563 5562 5560 5559 5557 5555 5554 5553 5551 5550 5548 5547 5546 5544 5543 5542 5541 5539 5538 5536 5535 5533 5531 5528 5526 5525 5523 5521 5520 5518 5517 5516 5515 5514 5512 5510
5551 5551 5550 5549 5549 5549 5549 5550 5551 5551 5550 5550 5551 5552 5553 5554 5554 5555 5556 5557 5559 5560 5560 5561 5562 5563 5564 5564 5565 5566 5566 5567 5567 5568 5568 5569 5569 5569 5569 5568 5568 5567 5567 5566 5565 5564 5563 5561 5560 5559 5557 5556 5554 5553 5551 5550 5548 5547 5546 5544 5543 5542 5541 5539 5538 5537 5536 5534 5533 5531 5530 5528 5525 5524 5522 5521 5519 5518 5516 5515 5514 5513 5512 5511 5509
5549 5548 5548 5547 5546 5546 5546 5547 5547 5547 5547 5547 5548 5549 5549 5550 5550 5551 5552 5553 5554 5555 5556 5557 5558 5558 5559 5560 5561 5562 5563 5563 5563 5564 5564 5564 5565 5565 5564 5564 5564 5563 5563 5562 5561 5560 5559 5558 5556 5555 5553 5552 5550 5549 5547 5546 5544 5543 5542 5540 5539 5538 5537 5536 5535 5534 5532 5531 5530 5528 5527 5525 5523 5521 5520 5519 5517 5516 5514 5513 5512 5511 5510 5509 5508
5546 5546 5545 5544 5544 5543 5543 5543 5544 5544 5544 5544 5544 5545 5546 5546 5547 5547 5548 5549 5550 5551 5552 5553 5554 5555 5555 5556 5557 5558 5559 5559 5560 5560 5560 5560 5560 5561 5561 5561 5560 5560 5560 5559 5558 5557 5556 5555 5553 5551 5550 5548 5547 5545 5544 5543 5541 5540 5538 5537 5536 5535 5534 5533 5532 5530 5529 5528 5527 5526 5524 5522 5521 5519 5518 5517 5515 5514 5513 5511 5510 5509 5508 5507 5506